When you browse on this site, cookies collect data to enhance your experience and personalize the content and advertising you see.
Visit our Privacy Policy to learn more. By continuing to use the site, you agree to this use of cookies and data.
  • In Lithuania
  • List of Countries
  • For 7 days
  • Water Temperature
  • Weather Map
  • Weather Widgets
  • user-avatar
    Login

    Hourly Weather Klyakovo

    Today, 24 January, Friday

    Time Temperature Precipitation Wind Pressure Humidity
    00:00 -6°C° 0 mm 3 mps 743 mmHg 81%
    01:00 -6°C° 0 mm 3 mps 742 mmHg 82%
    02:00 -5°C° 0 mm 3 mps 741 mmHg 83%
    03:00 -5°C° 0.1 mm 3 mps 740 mmHg 86%
    04:00 -5°C° 0.1 mm 4 mps 740 mmHg 89%
    05:00 -4°C° 0.1 mm 4 mps 739 mmHg 92%
    06:00 -5°C° 0.3 mm 5 mps 738 mmHg 93%
    07:00 -5°C° 0.3 mm 5 mps 737 mmHg 94%
    08:00 -4°C° 0 mm 5 mps 736 mmHg 94%
    09:00 -2°C° 0.2 mm 5 mps 736 mmHg 92%
    10:00 -1°C° 0.2 mm 5 mps 736 mmHg 89%
    11:00 -1°C° 0.2 mm 5 mps 735 mmHg 87%
    12:00 0°C° 0 mm 5 mps 735 mmHg 89%
    13:00 0°C° 0 mm 5 mps 734 mmHg 92%
    14:00 0°C° 0 mm 4 mps 734 mmHg 94%
    15:00 0°C° 0.3 mm 4 mps 734 mmHg 95%
    16:00 0°C° 0.3 mm 4 mps 733 mmHg 96%
    17:00 0°C° 0.3 mm 4 mps 733 mmHg 97%
    18:00 +1°C° 0 mm 3 mps 733 mmHg 96%
    19:00 0°C° 0 mm 3 mps 733 mmHg 95%
    20:00 0°C° 0 mm 3 mps 732 mmHg 94%
    21:00 0°C° 0.2 mm 3 mps 732 mmHg 95%
    22:00 0°C° 0.2 mm 3 mps 732 mmHg 96%
    23:00 0°C° 0.2 mm 3 mps 733 mmHg 97%

    Tomorrow, 25 January, Saturday

    Time Temperature Precipitation Wind Pressure Humidity
    00:00 -1°C° 0.1 mm 4 mps 733 mmHg 95%
    01:00 -1°C° 0.1 mm 4 mps 733 mmHg 92%
    02:00 -1°C° 0.1 mm 4 mps 733 mmHg 90%
    03:00 -1°C° 0 mm 4 mps 732 mmHg 88%
    04:00 -1°C° 0 mm 4 mps 732 mmHg 86%
    05:00 -1°C° 0 mm 4 mps 732 mmHg 83%
    06:00 -1°C° 0 mm 4 mps 732 mmHg 86%
    07:00 -1°C° 0 mm 4 mps 732 mmHg 88%
    08:00 -1°C° 0 mm 4 mps 731 mmHg 90%
    09:00 -1°C° 0.1 mm 5 mps 731 mmHg 86%
    10:00 -2°C° 0.1 mm 6 mps 731 mmHg 82%
    11:00 -1°C° 0.1 mm 7 mps 730 mmHg 78%
    12:00 -2°C° 0.1 mm 6 mps 730 mmHg 74%
    13:00 -2°C° 0.1 mm 6 mps 730 mmHg 69%
    14:00 -3°C° 0.1 mm 6 mps 731 mmHg 65%
    15:00 -3°C° 0 mm 6 mps 731 mmHg 69%
    16:00 -4°C° 0 mm 6 mps 732 mmHg 73%
    17:00 -5°C° 0 mm 6 mps 732 mmHg 76%
    18:00 -5°C° 0.1 mm 6 mps 733 mmHg 78%
    19:00 -6°C° 0.1 mm 7 mps 733 mmHg 80%
    20:00 -6°C° 0.1 mm 7 mps 733 mmHg 82%
    21:00 -5°C° 0 mm 6 mps 734 mmHg 81%
    22:00 -5°C° 0 mm 6 mps 735 mmHg 80%
    23:00 -6°C° 0 mm 6 mps 736 mmHg 79%

    Day after tomorrow, 26 January, Sunday

    Time Temperature Precipitation Wind Pressure Humidity
    00:00 -6°C° 0 mm 6 mps 737 mmHg 78%
    01:00 -6°C° 0 mm 5 mps 738 mmHg 77%
    02:00 -6°C° 0 mm 5 mps 739 mmHg 76%
    03:00 -6°C° 0 mm 5 mps 740 mmHg 77%
    04:00 -5°C° 0 mm 4 mps 740 mmHg 78%
    05:00 -5°C° 0 mm 4 mps 741 mmHg 79%
    06:00 -5°C° 0 mm 4 mps 741 mmHg 80%
    07:00 -5°C° 0 mm 3 mps 742 mmHg 81%
    08:00 -5°C° 0 mm 3 mps 742 mmHg 82%
    09:00 -5°C° 0 mm 3 mps 742 mmHg 81%
    10:00 -4°C° 0 mm 4 mps 743 mmHg 79%
    11:00 -3°C° 0 mm 4 mps 743 mmHg 78%
    12:00 -3°C° 0 mm 4 mps 742 mmHg 81%
    13:00 -3°C° 0 mm 4 mps 742 mmHg 83%
    14:00 -4°C° 0 mm 5 mps 741 mmHg 85%
    15:00 -4°C° 0.2 mm 5 mps 741 mmHg 85%
    16:00 -2°C° 0.2 mm 5 mps 740 mmHg 86%
    17:00 -3°C° 0.2 mm 6 mps 739 mmHg 86%
    18:00 -2°C° 0.2 mm 6 mps 739 mmHg 89%
    19:00 -1°C° 0.2 mm 6 mps 739 mmHg 91%
    20:00 +1°C° 0.2 mm 5 mps 738 mmHg 94%
    21:00 +1°C° 0 mm 5 mps 738 mmHg 93%
    22:00 +1°C° 0 mm 5 mps 739 mmHg 92%
    23:00 +1°C° 0 mm 5 mps 739 mmHg 92%

    27 January, Monday

    Time Temperature Precipitation Wind Pressure Humidity
    00:00 +1°C° 0.1 mm 5 mps 739 mmHg 92%
    01:00 +1°C° 0.1 mm 5 mps 739 mmHg 92%
    02:00 +1°C° 0.1 mm 5 mps 740 mmHg 92%
    03:00 +1°C° 0.1 mm 4 mps 740 mmHg 93%
    04:00 +1°C° 0.1 mm 4 mps 740 mmHg 94%
    05:00 +2°C° 0.1 mm 3 mps 741 mmHg 95%
    06:00 +1°C° 0.2 mm 3 mps 741 mmHg 96%
    07:00 +2°C° 0.2 mm 2 mps 742 mmHg 97%
    08:00 +2°C° 0.2 mm 2 mps 742 mmHg 98%
    09:00 +1°C° 0.1 mm 2 mps 742 mmHg 97%
    10:00 +2°C° 0.1 mm 1 mps 743 mmHg 97%
    11:00 +2°C° 0.1 mm 1 mps 743 mmHg 96%
    12:00 +1°C° 0.3 mm 1 mps 743 mmHg 97%
    13:00 +1°C° 0.3 mm 1 mps 743 mmHg 97%
    14:00 +1°C° 0.3 mm 1 mps 743 mmHg 97%
    15:00 -1°C° 0.5 mm 2 mps 743 mmHg 97%
    16:00 -1°C° 0.5 mm 2 mps 743 mmHg 97%
    17:00 -1°C° 0.5 mm 2 mps 743 mmHg 97%
    18:00 -1°C° 0.7 mm 2 mps 743 mmHg 97%
    19:00 -2°C° 0.7 mm 2 mps 743 mmHg 97%
    20:00 -2°C° 0.7 mm 2 mps 743 mmHg 97%
    21:00 -2°C° 0.6 mm 2 mps 743 mmHg 97%
    22:00 -1°C° 0.6 mm 2 mps 743 mmHg 97%
    23:00 -1°C° 0.6 mm 2 mps 743 mmHg 97%

    28 January, Tuesday

    Time Temperature Precipitation Wind Pressure Humidity
    00:00 -1°C° 0.4 mm 2 mps 742 mmHg 98%
    01:00 -1°C° 0.4 mm 2 mps 742 mmHg 98%
    02:00 +1°C° 0.4 mm 1 mps 742 mmHg 98%
    03:00 +1°C° 0.2 mm 1 mps 741 mmHg 98%
    04:00 +1°C° 0.2 mm 1 mps 741 mmHg 98%
    05:00 +2°C° 0.2 mm 1 mps 741 mmHg 98%
    06:00 +2°C° 0.2 mm 1 mps 741 mmHg 98%
    07:00 +2°C° 0.2 mm 1 mps 741 mmHg 98%
    08:00 +2°C° 0.2 mm 1 mps 740 mmHg 98%
    09:00 +2°C° 0.1 mm 1 mps 740 mmHg 98%
    10:00 +2°C° 0.1 mm 1 mps 740 mmHg 99%
    11:00 +2°C° 0.1 mm 1 mps 740 mmHg 99%
    12:00 +2°C° 0.1 mm 1 mps 740 mmHg 99%
    13:00 +2°C° 0.1 mm 1 mps 740 mmHg 99%
    14:00 +2°C° 0.1 mm 1 mps 740 mmHg 98%
    15:00 +2°C° 0.1 mm 1 mps 740 mmHg 98%
    16:00 +1°C° 0.1 mm 1 mps 740 mmHg 98%
    17:00 +1°C° 0.1 mm 1 mps 740 mmHg 98%
    18:00 +1°C° 0.1 mm 1 mps 740 mmHg 98%
    19:00 +1°C° 0.1 mm 1 mps 740 mmHg 98%
    20:00 +1°C° 0.1 mm 1 mps 740 mmHg 98%
    21:00 +1°C° 0 mm 1 mps 740 mmHg 98%
    22:00 +1°C° 0 mm 1 mps 740 mmHg 97%
    23:00 +1°C° 0 mm 1 mps 740 mmHg 97%

    29 January, Wednesday

    Time Temperature Precipitation Wind Pressure Humidity
    00:00 +1°C° 0 mm 1 mps 739 mmHg 96%
    01:00 0°C° 0 mm 1 mps 739 mmHg 96%
    02:00 -2°C° 0 mm 2 mps 739 mmHg 96%
    03:00 -2°C° 0 mm 2 mps 739 mmHg 96%
    04:00 -2°C° 0 mm 2 mps 739 mmHg 97%
    05:00 -2°C° 0 mm 2 mps 738 mmHg 97%
    06:00 -1°C° 0.1 mm 2 mps 738 mmHg 97%
    07:00 -1°C° 0.1 mm 3 mps 738 mmHg 97%
    08:00 0°C° 0.1 mm 3 mps 738 mmHg 97%
    09:00 0°C° 0 mm 3 mps 738 mmHg 96%
    10:00 0°C° 0 mm 3 mps 738 mmHg 95%
    11:00 -1°C° 0 mm 4 mps 738 mmHg 93%
    12:00 -1°C° 0 mm 4 mps 737 mmHg 92%
    13:00 -1°C° 0 mm 4 mps 737 mmHg 92%
    14:00 -1°C° 0 mm 4 mps 736 mmHg 91%
    15:00 -1°C° 0 mm 4 mps 736 mmHg 93%
    16:00 -1°C° 0 mm 4 mps 736 mmHg 95%
    17:00 -1°C° 0 mm 4 mps 736 mmHg 97%
    18:00 -1°C° 0.2 mm 4 mps 735 mmHg 97%
    19:00 -1°C° 0.2 mm 4 mps 735 mmHg 97%
    20:00 -1°C° 0.2 mm 4 mps 734 mmHg 97%
    21:00 0°C° 0.1 mm 4 mps 734 mmHg 97%
    22:00 0°C° 0.1 mm 4 mps 734 mmHg 97%
    23:00 0°C° 0.1 mm 5 mps 733 mmHg 97%
    Show more